This is the latest recevied weather packets stored in our database for station/object KF4UQS-14. If no packets are shown the sender has not sent any weather packets the latest 10 day(s).
| Time | Temp. | Humidity | Pressure | Rain* | Wind** | Luminosity | Snow |
|---|---|---|---|---|---|---|---|
| 1777912420 | 23.89° C | 45% | 1016.1 hPa | 0 mm | - | 781 W/m² | - |
| 1777912117 | 23.89° C | 44% | 1016 hPa | 0 mm | - | 780 W/m² | - |
| 1777911812 | 22.78° C | 46% | 1016.1 hPa | 0 mm | - | 774 W/m² | - |
| 1777911509 | 22.78° C | 45% | 1016.3 hPa | 0 mm | - | 772 W/m² | - |
| 1777911207 | 22.78° C | 44% | 1016.3 hPa | 0 mm | - | 772 W/m² | - |
| 1777910903 | 23.33° C | 46% | 1016.1 hPa | 0 mm | - | 765 W/m² | - |
| 1777910600 | 22.78° C | 44% | 1016.4 hPa | 0 mm | - | 758 W/m² | - |
| 1777910298 | 23.33° C | 44% | 1016.3 hPa | 0 mm | - | 753 W/m² | - |
| 1777909994 | 23.89° C | 45% | 1016.4 hPa | 0 mm | - | 747 W/m² | - |
| 1777909691 | 23.33° C | 44% | 1016.5 hPa | 0 mm | - | 741 W/m² | - |
| 1777909389 | 22.22° C | 45% | 1016.5 hPa | 0 mm | - | 734 W/m² | - |
| 1777909087 | 22.78° C | 45% | 1016.6 hPa | 0 mm | - | 728 W/m² | - |
| 1777908784 | 22.22° C | 47% | 1016.7 hPa | 0 mm | - | 720 W/m² | - |
| 1777908481 | 22.22° C | 46% | 1016.7 hPa | 0 mm | - | 715 W/m² | - |
| 1777908177 | 22.78° C | 47% | 1016.8 hPa | 0 mm | - | 704 W/m² | - |
| 1777907873 | 22.78° C | 47% | 1016.8 hPa | 0 mm | - | 695 W/m² | - |
| 1777907569 | 21.67° C | 49% | 1016.8 hPa | 0 mm | - | 687 W/m² | - |
| 1777907265 | 21.11° C | 49% | 1016.8 hPa | 0 mm | - | 680 W/m² | - |
| 1777906962 | 21.67° C | 50% | 1016.8 hPa | 0 mm | - | 669 W/m² | - |
| 1777906660 | 21.11° C | 52% | 1016.9 hPa | 0 mm | - | 659 W/m² | - |
| 1777906356 | 21.67° C | 49% | 1017 hPa | 0 mm | - | 651 W/m² | - |
| 1777906052 | 21.11° C | 53% | 1016.8 hPa | 0 mm | - | 639 W/m² | - |
| 1777905749 | 21.67° C | 52% | 1016.6 hPa | 0 mm | - | 627 W/m² | - |
| 1777905446 | 21.11° C | 52% | 1016.8 hPa | 0 mm | - | 613 W/m² | - |
| 1777905144 | 21.11° C | 53% | 1017 hPa | 0 mm | - | 605 W/m² | - |
* Rain latest hour (hover to see other rain measurements)
** Current wind speed in m/s (hover to see current wind gust speed)